Погода в Касли

Россия / Челябинская область     55°53′37″N   60°45′57″E
темп.,
°C
ветер,
м/с
пор.,
м/с
влажн.,
%
обл.,
%
осадки,
мм/ч
давл.,
гПа
погр.,
м
4 марта, чт
чт423:00−9юз239381 0.0 99939
02:00−8юз369393 0.0 998159
05:00−9юз269397 0.0 998137
08:00−10юз3793100 0.0 997152
11:00−5з51083100 0.0 998882
14:00−5з61077100 0.1 9981233
17:00−5з4882100 0.1 999951
20:00−10юз379061 0.0 999140
5 марта, пт
пт523:00−10ю379381 0.0 998145
02:00−9ю41190100 0.0 994333
05:00−5ююз5139099 0.4 993671
08:00−5зюз6177620 0.0 994840
11:00−3з8157243 0.0 996948
14:00−2з714688 0.0 9981328
17:00−3зюз4107642 0.0 1000985
20:00−8зюз388645 0.0 1001183
6 марта, сб
сб623:00−10з4118936 0.0 1004339
02:00−12з513870 0.0 1007415
05:00−14з512870 0.0 1010287
08:00−15з512890 0.0 1010307
11:00−9з611800 0.0 1010608
14:00−6зюз59789 0.0 1010984
17:00−7зюз488250 0.0 1009937
20:00−11юз339070 0.0 100950
7 марта, вс
вс723:00−13зюз239164 0.0 101033
02:00−15сз1194100 0.0 100820
05:00−16сз1293100 0.0 100820
08:00−18зсз119547 0.0 100820
11:00−11зсз248655 0.0 1008451
14:00−9зсз457896 0.1 10091024
17:00−11з467998 0.1 1009879
20:00−17з339153 0.0 101161
8 марта, пн
пн823:00−19з259327 0.0 101394
02:00−21зюз22940 0.0 101340
05:00−22ююз23935 0.0 101327
08:00−21ююв279393 0.0 1010167
11:00−15ю499497 0.3 1008403
14:00−9ю5986100 0.4 1005656
17:00−6ююз51191100 1.1 10041050
20:00−10юз4128030 0.1 1006344